Home > Weather > Firenze > Past weeks

Flag for Italy Weather for the Past 2 Weeks in Firenze, Italy

Now
48 °F

Passing clouds.


Feels Like: 47 °F
Forecast: 43 / 48 °F
Wind: 3 mph from East

Location: Florence / Peretola

Current Time: Feb 15, 2016 at 12:30:09 AM

Latest Report: Feb 14, 2016 at 10:50 PM


Visibility: N/A

Pressure: 29.45 "Hg

Humidity: 94%

Dew point: 46 °F

Location of FirenzeLocation

Historic Weather in Firenze — Graph

°F

Firenze Temperature Yesterday

Maximum temperature yesterday: 59 °F (at 4:20 PM)
Minimum temperature yesterday: 48 °F (at 4:20 AM)
Average temperature yesterday: 53 °F

High & Low Weather Summary for the Past Weeks

 TemperatureHumidityPressure
High64 °F (Feb 1, 3:50 PM)100% (Jan 31, 5:50 PM)30.48 "Hg (Jan 31, 5:50 PM)
Low28 °F (Feb 5, 6:50 AM)23% (Feb 4, 4:20 PM)29.24 "Hg (Feb 14, 9:20 AM)
Average50 °F80%29.94 "Hg
* Reported Jan 30 10:20 PM — Feb 14 10:50 PM, Firenze, Weather by CustomWeather, © 2016

Note: Actual official high and low records may vary slightly from our data, if they occured in-between our weather recording intervals... More about our weather records

Advertising

Firenze Weather History for the Previous 24 Hours

 ConditionsComfort  
Time TempWeatherWind HumidityBarometerVisibility
10:50 PM
Sun, Feb 14
48 °FPassing clouds.3 mph94%29.45 "HgN/A
10:20 PM48 °FPassing clouds.3 mph94%29.42 "HgN/A
9:50 PM50 °FPassing clouds.1 mph88%29.42 "HgN/A
9:20 PM52 °FPassing clouds.2 mph82%29.42 "HgN/A
8:50 PM52 °FPassing clouds.8 mph82%29.42 "HgN/A
8:20 PM52 °FPassing clouds.5 mph82%29.42 "HgN/A
7:50 PM54 °FPassing clouds.7 mph77%29.39 "HgN/A
7:20 PM54 °FPassing clouds.7 mph82%29.39 "HgN/A
6:50 PM55 °FPassing clouds.5 mph77%29.36 "HgN/A
6:20 PM55 °FPassing clouds.5 mph77%29.36 "HgN/A
5:50 PM55 °FPassing clouds.2 mph77%29.33 "HgN/A
5:20 PM55 °FPartly sunny.6 mph77%29.33 "HgN/A
4:50 PM57 °FPartly sunny.3 mph72%29.33 "HgN/A
4:20 PM59 °FScattered clouds.5 mph68%29.33 "HgN/A
3:50 PM57 °FPartly sunny.6 mph67%29.33 "HgN/A
3:20 PM57 °FPartly sunny.7 mph72%29.33 "HgN/A
2:50 PM57 °FPartly sunny.10 mph72%29.33 "HgN/A
2:20 PM57 °FPartly sunny.16 mph67%29.30 "HgN/A
1:50 PM57 °FPartly sunny.12 mph77%29.30 "HgN/A
1:20 PM57 °FScattered clouds.16 mph77%29.30 "HgN/A
12:50 PM57 °FScattered clouds.15 mph82%29.27 "HgN/A
12:20 PM57 °FScattered clouds.12 mph88%29.27 "HgN/A
11:50 AM55 °FScattered clouds.5 mph94%29.27 "HgN/A
11:20 AM54 °FDrizzle. Broken clouds.7 mph94%29.24 "HgN/A
10:50 AM54 °FPartly sunny.10 mph94%29.24 "HgN/A
10:20 AM52 °FLight rain. Broken clouds.7 mph100%29.24 "Hg6 mi
9:50 AM52 °FRain. Fog.3 mph100%29.24 "Hg3 mi
9:20 AM52 °FRain. Broken clouds.7 mph94%29.24 "Hg4 mi
8:50 AM52 °FLight rain. Partly sunny.12 mph94%29.27 "Hg5 mi
8:20 AM50 °FRain. Fog.8 mph100%29.30 "Hg3 mi
7:50 AM50 °FRain. Fog.9 mph100%29.30 "Hg3 mi
7:20 AM50 °FRain. Fog.3 mph94%29.33 "Hg3 mi
6:50 AM50 °FRain. Passing clouds.6 mph94%29.33 "Hg4 mi
6:20 AM50 °FPassing clouds.5 mph88%29.36 "HgN/A
5:50 AM50 °FPassing clouds.7 mph88%29.36 "HgN/A
5:20 AM50 °FPassing clouds.5 mph88%29.39 "HgN/A
4:50 AM50 °FPassing clouds.5 mph88%29.39 "HgN/A
4:20 AM48 °FPassing clouds.7 mph94%29.42 "HgN/A
3:50 AM50 °FPassing clouds.3 mph82%29.42 "HgN/A
3:20 AM52 °FPassing clouds.5 mph82%29.45 "HgN/A
2:50 AM54 °FPassing clouds.7 mph77%29.45 "HgN/A
2:20 AM54 °FPassing clouds.5 mph82%29.45 "HgN/A
1:50 AM54 °FPassing clouds.3 mph88%29.45 "HgN/A
1:20 AM52 °FPassing clouds.2 mph88%29.45 "HgN/A
12:50 AM50 °FPassing clouds.3 mph94%29.45 "HgN/A
12:20 AM50 °FPassing clouds.3 mph88%29.45 "HgN/A
Weather by CustomWeather, © 2016

See weather overviewHow to use our weather pages